Regional Weather Roundup
Issued by NWS Upton, NY

Current Version | Previous Version | Graphics & Text | Print | Product List | Glossary Off
Versions: 1 2 3 4 5 6 7 8 9 10 11 12 13 14 15 16 17 18 19 20 21 22 23 24 25 26 27

000
ASUS41 KOKX 191605
RWROKX

Regional Weather Roundup
National Weather Service New York NY
1200 PM EDT THU APR 19 2018

Note: "FAIR" indicates few or no clouds below 12,000 feet with no
significant weather and/or obstructions to visibility.

NYZ071-072-176-178-NJZ106-104-191700-
New York City Metro Area

CITY           SKY/WX    TMP DP  RH WIND       PRES   REMARKS
Central Park   LGT RAIN  44  38  79 N7        29.73S
Bronx Bot Gard   N/A     41  36  81 NW7       29.70
Bronx Lehman C   N/A     41  37  87 N5          N/A
LaGuardia Arpt LGT RAIN  44  37  76 N12       29.70S
Queens College   N/A     43  39  87 N6          N/A
Kennedy Intl   LGT RAIN  43  39  86 N12       29.72R
Breezy Point     N/A     43 N/A N/A N6          N/A
Brooklyn Coll    N/A     45  37  76 NW6         N/A
Staten Island    N/A     43  37  81 N7          N/A
Newark/Liberty LGT RAIN  45  39  79 NW8       29.71F
Teterboro      LGT RAIN  44  38  79 N9        29.70F
$$

NYZ177-179-078>081-191700-
Long Island New York

CITY           SKY/WX    TMP DP  RH WIND       PRES   REMARKS
Jones Beach      N/A     43 N/A N/A N14         N/A
Wantagh          N/A     43  37  81 N8          N/A
Hempstead        N/A     43  39  87 CALM      29.73
Matinecock Pt    N/A     43 N/A N/A N6          N/A
Farmingdale    CLOUDY    43  38  82 NE12      29.69R
MacArthur/ISP  CLOUDY    43  38  82 N12       29.69R
Stony Brook      N/A     41  37  87 E3          N/A
Shirley        CLOUDY    43  39  86 N9        29.71R
Mt Sinai Harb    N/A     41 N/A N/A NE6         N/A
Westhampton    CLOUDY    43  37  79 N10       29.70S
East Hampton   CLOUDY    41  38  87 N7        29.70R
Southold         N/A     41  37  87 N10         N/A
Montauk          N/A     43  40  89 NE7       29.69F
$$

NYZ052-065-067-191700-
Hudson Valley

CITY           SKY/WX    TMP DP  RH WIND       PRES   REMARKS
White Plains   LGT RAIN  40  36  86 NW8       29.69R WCI  34
Larchmont Harb   N/A     41 N/A N/A NW5         N/A
Croton On Huds   N/A     41 N/A N/A W3          N/A
Somers           N/A     39  36  87 NW2         N/A
Brewster         N/A     37  34  87 NW6         N/A  WCI  33
Newburgh       CLOUDY    39  37  93 VRB6      29.73R WCI  35
Montgomery     CLOUDY    39  35  86 CALM      29.71R
Otisville        N/A     37  36  93 W3          N/A
Warwick          N/A     37  37 100 NW3         N/A
Suffern          N/A     39  36  87 NW5         N/A
Poughkeepsie   CLOUDY    39  34  82 NW5       29.72R
Albany         CLOUDY    42  29  59 NW10      29.72S
$$

NJZ001-105-106-008-010-013-015-019>022-104-191700-
New Jersey

CITY           SKY/WX    TMP DP  RH WIND       PRES   REMARKS
Newark/Liberty LGT RAIN  45  39  79 NW8       29.71F
Teterboro      LGT RAIN  44  38  79 N9        29.70F
Caldwell       CLOUDY    42  38  85 NW3       29.72F
Somerville     CLOUDY    43  37  79 MISG      29.71F
Linden         CLOUDY    44  38  78 N5        29.71F
Perth Amboy      N/A     43 N/A N/A N7          N/A
Sussex         CLOUDY    40  38  93 CALM      29.71S
Andover          N/A     40  35  83 VRB5      29.71F
Trenton        CLOUDY    46  39  76 N6        29.72R
Millville      PTSUNNY   54  44  69 W8        29.72S
Atlantic City  PTSUNNY   56  41  57 W7        29.72R
Wrightstown    NOT AVBL
Toms River     LGT RAIN  50  40  68 NW5       29.72R
Belmar         LGT RAIN  46  39  76 N8          N/A
$$

PAZ047>061-062-071-191700-
Eastern Pennsylvania

CITY           SKY/WX    TMP DP  RH WIND       PRES   REMARKS
Philadelphia   CLOUDY    48  39  71 CALM      29.73R
Allentown      LGT RAIN  42  36  79 NW8       29.74R
Scranton       LGT SNOW  36  33  89 W7        29.76R FOG     WCI  30
$$

CTZ002-004>006-009-010-012-RIZ004-006-007-MAZ004-011-015-191700-
Southern New England

 In CT

CITY           SKY/WX    TMP DP  RH WIND       PRES   REMARKS
Bradley Intl   CLOUDY    40  36  86 VRB3      29.70S
Hartford       CLOUDY    40  36  86 N5        29.71S
Danbury        CLOUDY    40  35  83 N3        29.71R
Wtrbury/Oxford CLOUDY    38  34  85 N5        29.69F WCI  34
Norwalk Harbor   N/A     39 N/A N/A N7          N/A  WCI  34
Bridgeport     CLOUDY    43  37  79 N6        29.71R
Meriden        CLOUDY    39  35  86 N5        29.70R
New Haven      CLOUDY    42  36  79 N7        29.70F
Chester        CLOUDY    41  37  87 N6        29.68S
Groton         CLOUDY    42  39  89 N9        29.68S
Willimantic    CLOUDY    40  37  89 N5        29.69F

 In RI

CITY           SKY/WX    TMP DP  RH WIND       PRES   REMARKS
Providence     CLOUDY    41  39  93 NE5       29.69F
Block Island   CLOUDY    40  40 100 N7        29.69F
Westerly       CLOUDY    42  41  96 NE8       29.68F

In MA

CITY           SKY/WX    TMP DP  RH WIND       PRES   REMARKS
Boston         CLOUDY    39  35  86 N3        29.68
Worcester      CLOUDY    36  32  85 W5        29.65F WCI  32
Westfield      CLOUDY    42  38  85 VRB6      29.68F
Provincetown   LGT RAIN  38  37  97 NW9       29.72R WCI  31
Nantucket      CLOUDY    43  41  93 NE8       29.65F
$$

ANZ330-335-338-340-345-350-353-355-191700-
Coastal Marine Observations


STATION/POSITION TIME  SKY/WX   TEMP    WIND        PRES    VSBY  WAVE
                                AIR SEA DIR/SP/G                  HT/PER
                 (UTC)          (F)     (DEG/KT/KT) (MB)    (MI)  (FT/S)
NY Harb Entrance 1550            44 45  350/ 10/ 12 1006.4          2/ 8
20 S Fire Island 1550            43 42   30/ 16/ 19 1004.6          3/ 3
23 SSW Montauk P 1550            41 42  360/ 17/ 19 1004.8          3/ 8
15 E Barnegat Li 1530               44                N/A           3/ 3
Hudson Canyon    1550            45 45  360/ 12/ 14 1004.6          4/ 5
Kings Point      1548               44                N/A
Execution Rocks  NOT AVBL
Western LI Sound NOT AVBL
Central LI Sound 1545            41      20/  8/ 10   N/A           1
Robbins Reef     1548            43     340/  8/ 10 1006.6
$$


>>>>>>>>>>>>>>>>>>>>>>>>>>>> KEY <<<<<<<<<<<<<<<<<<<<<<<<<<<
>                                                          <
>     SKY/WX - Sky Condition/Present Weather               <
>     TMP    - Temperature in Fahrenheit                   <
>     DP     - Dew Point in Fahrenheit                     <
>     RH     - Relative Humidity in Percent                <
>     WIND   - Direction (from) and Speed in MPH           <
>     PRES   - Mean Sea Level Pressure (inches of Hg)      <
>     WCI    - Wind Chill Index                            <
>     VSB    - Visibility in Miles                         <
>     HX     - Heat Index                                  <
>     TC     - Temperature in Celsius                      <
>     VRB    - Varibale Wind Direction                     <
>                                                          <
>>>>>>>>>>>>>>>>>>>>>>>>>>>> KEY <<<<<<<<<<<<<<<<<<<<<<<<<<<




USA.gov is the U.S. government's official web portal to all federal, state and local government web resources and services.